Simultaneous Nadir Overpasses (SNOs) Predictions

Prediction of SNOs between NOAA-19 and METOP-C Satellite Orbit:

Table of predicted SNOs for the next 14.0 days since TLE Epoch: 9/11/2021
Index Date (NOAA-19) Time (NOAA-19) Lat,Lon (NOAA-19) SZA (NOAA-19 ) Date (METOP-C) Time (METOP-C) Lat,Lon (METOP-C) SZA (METOP-C ) Distance(km) Time Diff (sec)
1 09/14/2021 01:52:22 -80.64, 1.40 101.46 09/14/2021 01:53:35 -80.64, 1.39 101.44 0.14 73
2 09/14/2021 02:43:24 80.63, 168.80 78.57 09/14/2021 02:44:16 80.64, 168.69 78.58 1.98 52
3 09/14/2021 03:34:22 -80.64, -24.01 101.43 09/14/2021 03:34:57 -80.63, -24.11 101.43 1.87 35
4 09/14/2021 04:25:24 80.63, 143.39 78.60 09/14/2021 04:25:37 80.65, 143.53 78.63 3.29 13
5 09/14/2021 05:16:22 -80.63, -49.43 101.40 09/14/2021 05:16:18 -80.64, -49.27 101.38 3.03 4
6 09/14/2021 06:07:24 80.63, 117.98 78.63 09/14/2021 06:06:59 80.64, 118.03 78.64 1.55 25
7 09/14/2021 06:58:22 -80.63, -74.84 101.36 09/14/2021 06:57:40 -80.63, -74.76 101.37 1.40 42



Historial Predications of SNOs between NOAA-19 and METOP-C
